Theta_e
337 336 335 335 335 336 336 336 336 335 335 335 334 334 332 335 340 342 345 343 333 331 333 332 332 331 330 330 330 330 331 331 332 332 331 331 330 329 330 330 330 331 331 331 330 330 329 329 329 328 328 328 328 328 328 328 329 328 329 329 329 329 328 327 325 322 320 320 321 322 322 322 321 320
336 335 335 336 336 336 336 336 335 335 335 335 334 335 334 333 335 337 341 343 334 329 332 331 330 330 329 330 330 329 330 330 330 330 330 331 330 331 331 330 331 331 331 331 330 331 330 330 330 329 329 329 329 329 329 329 328 328 328 328 328 328 328 328 327 325 325 325 325 325 325 325 324 323
335 336 336 336 336 336 335 335 335 334 335 335 334 335 334 334 334 332 334 338 335 330 331 330 329 330 329 329 329 329 329 329 329 329 329 330 330 330 331 331 331 330 330 330 329 330 331 331 331 330 330 330 330 330 330 329 329 329 328 328 328 328 328 328 328 327 327 327 326 326 326 326 325 325
335 336 336 335 335 335 335 335 335 335 335 335 334 334 334 333 334 333 332 334 334 331 330 330 330 330 330 330 330 329 329 328 328 328 328 328 328 327 328 328 328 327 327 329 330 330 330 330 331 330 330 330 330 330 330 330 330 330 329 329 328 328 328 328 328 327 327 327 327 326 326 326 325 325
334 336 336 335 335 336 336 336 336 336 336 335 334 334 335 334 334 334 333 333 333 332 331 331 330 330 331 331 330 330 329 328 329 329 328 326 326 325 326 326 326 326 326 328 330 331 331 331 330 330 329 329 329 329 329 329 329 329 329 329 328 328 328 327 327 327 327 327 327 326 326 326 326 325
333 334 334 334 335 336 337 337 337 337 336 336 335 334 335 335 334 334 334 333 333 333 332 332 331 331 331 331 330 330 330 330 330 330 329 328 328 328 328 328 328 328 327 327 328 330 331 331 329 328 328 328 328 328 328 328 327 328 328 328 328 328 327 327 327 326 326 326 326 326 326 326 326 325
334 334 335 335 335 336 337 337 336 336 336 336 335 335 335 335 335 334 334 334 334 334 333 333 332 332 331 331 331 331 330 331 330 330 330 329 329 329 329 329 329 329 329 328 327 328 330 330 328 326 326 327 327 327 327 327 326 326 326 326 326 326 326 326 326 325 325 325 326 326 326 326 326 326
335 335 335 335 336 336 336 336 335 335 336 336 336 335 335 335 335 334 334 334 334 334 334 334 333 332 332 332 331 330 330 331 331 331 330 330 330 330 330 330 330 330 329 328 328 329 329 329 328 326 326 327 327 327 327 327 326 325 325 324 325 325 325 325 325 325 325 326 326 325 326 326 326 326
336 336 336 336 336 337 337 336 335 335 336 336 335 335 335 335 335 334 334 334 334 334 335 334 334 333 333 332 331 331 331 331 331 331 330 330 330 330 330 330 330 330 330 329 329 328 328 328 327 327 327 327 328 327 327 326 325 323 322 322 324 325 326 325 325 325 325 326 326 326 326 326 326 325
336 336 336 336 337 337 337 336 335 336 336 336 336 336 335 335 335 335 334 334 334 335 334 334 335 334 333 333 332 331 331 332 332 332 331 330 331 331 330 330 329 329 329 329 328 328 327 327 327 327 327 327 327 327 325 324 322 320 320 321 323 324 326 326 325 325 324 324 324 324 324 324 324 324
336 336 335 336 337 337 337 336 335 335 336 336 336 336 336 336 335 335 335 335 334 335 335 335 334 334 333 333 332 332 332 332 332 331 331 331 331 330 330 329 330 329 329 328 328 327 327 328 328 328 328 327 326 324 322 320 318 317 318 319 321 321 322 323 322 322 322 322 322 323 324 324 324 324
336 336 335 335 335 336 336 336 336 335 335 336 336 336 336 336 336 336 335 335 335 335 335 334 334 334 333 332 332 332 332 332 332 331 331 331 331 330 330 329 329 329 328 328 328 327 327 327 327 327 327 325 323 321 319 318 318 318 319 320 320 321 322 322 322 322 323 323 324 324 324 324 324 324
336 335 335 334 335 336 337 336 336 336 336 336 336 336 336 336 336 335 335 335 335 335 335 334 334 333 332 332 332 332 332 331 331 331 331 331 330 330 329 328 328 328 328 328 328 327 326 326 326 325 324 323 320 319 319 320 320 321 322 322 323 323 323 323 323 323 323 323 323 322 321 321 321 320
335 335 336 336 336 336 337 337 337 337 336 336 336 336 337 336 336 335 335 335 335 334 334 333 333 332 332 332 332 331 332 331 331 331 330 329 329 328 328 328 328 328 328 328 327 326 326 326 325 323 322 320 319 320 321 321 321 322 322 322 323 323 323 323 322 322 322 321 320 319 318 317 316 316
330 331 335 338 337 337 338 337 338 337 337 337 337 337 337 337 336 335 334 334 333 332 331 331 331 331 332 332 332 332 332 331 330 329 328 328 328 327 327 328 328 328 328 328 327 325 323 323 322 321 320 319 320 321 322 321 321 321 321 322 322 322 322 321 321 320 319 319 318 317 317 316 316 315
330 329 333 337 337 336 337 337 337 337 337 338 338 337 337 337 336 334 333 332 332 330 330 331 331 331 331 332 332 332 331 330 329 329 329 329 328 328 328 328 328 326 325 326 326 323 321 320 321 320 320 321 322 322 321 321 321 321 320 320 319 319 319 318 317 317 316 316 315 315 315 315 315 315
334 333 334 336 336 336 336 337 338 338 338 338 337 337 338 337 335 334 333 332 331 330 330 331 332 332 332 332 331 331 330 330 330 330 329 328 328 328 328 327 326 323 322 322 322 321 320 321 321 321 321 321 321 321 320 320 320 320 319 318 318 317 316 315 314 314 314 314 314 315 315 316 316 317
336 337 337 337 336 336 337 337 338 339 338 338 338 337 337 336 334 333 332 331 331 331 332 333 334 334 332 331 330 330 329 329 328 327 327 326 326 326 326 324 322 321 320 321 320 320 321 321 321 321 320 319 318 318 318 318 318 318 317 316 315 314 313 314 314 315 316 316 317 318 318 318 317 318
337 338 338 338 337 337 337 338 338 338 337 338 338 337 336 335 334 333 332 332 333 333 334 335 334 333 330 329 328 327 326 324 321 320 322 323 323 323 322 321 321 320 320 320 320 320 320 320 320 319 316 314 313 313 313 313 312 312 312 312 313 314 315 316 317 318 318 319 319 319 319 318 318 318
335 337 338 338 338 338 337 338 337 336 336 338 338 337 336 336 334 333 333 334 335 335 335 334 332 329 327 327 326 325 323 320 318 317 318 320 322 321 321 321 320 319 318 318 319 321 320 317 316 314 312 311 311 309 309 309 310 311 313 314 315 316 317 318 318 318 318 318 318 318 319 318 319 319
335 336 337 337 337 337 337 336 336 336 337 338 337 336 336 336 335 334 335 335 335 334 333 331 328 327 326 326 325 323 320 318 318 318 319 320 320 320 320 320 318 316 314 315 318 320 318 314 311 311 310 310 310 309 309 311 313 314 315 316 316 317 317 317 317 318 318 318 318 318 318 318 318 319
337 336 335 334 335 336 336 335 336 337 338 338 337 336 336 335 335 335 335 335 334 333 331 329 328 327 326 324 321 319 318 318 319 319 319 319 317 316 317 317 316 315 313 313 316 317 314 311 310 310 310 310 310 310 311 313 314 315 316 316 316 316 317 317 317 317 318 318 318 318 318 318 318 318
337 335 333 333 334 335 336 336 337 338 338 337 337 336 336 336 336 336 335 334 333 332 329 327 325 324 321 318 317 317 318 319 319 318 318 317 315 313 313 313 315 316 314 312 313 313 312 310 311 310 311 312 311 310 311 312 313 314 315 316 316 316 316 317 317 318 318 318 318 318 317 317 317 317
335 334 334 334 334 335 336 337 338 339 338 337 336 336 336 336 336 335 334 333 331 328 325 323 320 317 314 314 316 317 316 316 316 316 317 315 312 311 311 311 313 315 314 311 311 312 311 311 311 310 311 312 312 310 310 311 312 313 314 315 315 316 316 317 317 318 318 318 318 317 317 316 317 317
334 334 334 334 334 335 337 338 339 339 337 336 336 336 336 335 334 333 332 329 326 323 321 319 316 313 313 315 316 315 313 314 314 314 314 313 310 309 310 310 311 312 311 308 308 310 311 311 311 310 310 311 311 311 310 311 311 312 313 314 315 315 316 316 317 318 317 318 317 317 317 317 316 317
335 335 335 335 334 336 338 339 339 338 337 337 337 337 336 335 334 332 328 324 321 320 317 315 314 313 314 316 315 314 313 313 313 313 313 311 309 308 308 309 309 310 309 307 306 308 310 310 309 310 310 311 311 310 311 311 310 310 312 314 315 315 316 317 317 317 317 317 317 317 317 316 316 315
336 336 336 336 336 338 339 339 338 337 337 337 338 338 337 336 332 328 323 320 319 317 315 314 314 314 315 316 315 314 314 313 313 314 312 309 307 307 307 307 307 307 307 307 306 307 309 309 308 309 310 310 310 310 310 310 310 310 312 315 316 316 316 317 317 317 317 317 317 317 316 316 315 314
337 336 336 338 339 339 339 338 338 337 337 338 338 337 336 333 327 322 320 319 317 315 315 315 314 314 315 316 316 316 315 315 314 314 311 308 306 307 307 306 306 306 306 307 307 307 308 308 308 308 308 309 309 309 310 310 310 311 312 314 316 316 316 317 317 317 317 317 317 317 316 316 314 314
337 335 336 339 339 339 338 337 337 337 337 337 336 334 332 327 322 319 319 318 316 315 315 315 315 315 315 315 316 316 316 316 316 314 310 307 306 306 306 306 306 306 306 307 307 307 307 307 307 307 307 308 309 309 310 310 311 311 313 314 316 316 316 316 317 317 317 317 317 316 316 315 314 314
334 334 336 338 338 338 337 336 336 336 336 335 333 330 326 322 320 319 319 317 316 315 315 315 315 315 315 315 316 316 316 317 316 312 308 306 306 306 306 306 306 306 306 306 306 306 306 307 307 307 307 307 308 309 309 310 311 312 314 315 316 316 316 316 317 316 316 317 317 316 315 314 314 313
333 334 335 337 337 336 336 335 336 336 335 333 330 326 323 321 321 320 318 317 316 315 315 315 315 315 315 316 316 317 317 317 313 309 306 306 306 306 306 306 306 306 306 306 306 306 307 307 307 307 307 307 308 309 310 311 311 313 315 315 316 316 316 316 316 316 316 316 316 315 314 313 312 311
334 335 336 337 336 336 336 336 336 335 334 332 329 326 323 323 323 321 319 318 317 316 315 315 315 315 316 316 318 318 317 314 309 307 306 306 306 306 306 306 305 305 305 305 306 306 306 306 306 307 307 307 308 308 309 310 311 312 314 314 314 315 316 316 316 316 315 315 314 313 312 311 310 309
336 336 336 336 336 336 336 336 335 334 333 332 330 327 325 324 323 321 320 320 318 317 317 316 316 316 317 317 318 316 313 309 307 306 306 306 306 306 306 305 305 305 305 305 306 306 306 306 306 307 307 307 306 306 308 310 310 310 311 313 314 315 316 316 316 315 314 314 313 311 310 309 309 308
336 336 336 336 336 336 335 335 334 333 333 332 331 328 326 324 323 323 321 321 320 319 318 317 318 318 318 316 314 311 309 307 306 305 305 305 306 305 305 304 305 305 304 305 305 306 306 306 306 306 306 306 305 305 306 308 309 308 310 312 314 315 316 316 315 314 312 311 310 309 308 308 308 308
335 335 335 335 335 334 334 333 333 333 333 332 331 329 327 325 324 322 322 322 321 320 319 319 319 318 315 313 310 308 307 306 305 304 305 305 305 305 304 304 304 304 304 305 305 306 306 306 306 306 306 306 306 306 306 307 308 308 310 311 313 315 316 315 313 311 309 308 307 307 307 307 307 307
335 335 334 333 333 332 332 333 333 333 333 331 330 328 326 324 323 323 323 323 322 321 321 320 318 315 312 309 308 307 307 305 304 304 305 305 305 304 304 304 304 304 304 305 305 306 306 305 305 306 305 306 307 308 308 308 309 308 309 312 314 315 314 312 310 308 307 307 306 307 307 307 306 306
333 334 333 333 332 332 333 333 333 332 332 331 328 326 324 324 324 323 322 322 322 322 321 318 314 311 309 308 308 307 306 304 304 305 305 305 304 304 303 303 304 304 304 305 305 305 305 305 305 305 305 307 309 308 307 310 311 311 311 313 315 314 312 310 308 307 306 306 306 306 306 306 305 305
333 333 332 332 332 332 332 332 332 332 331 329 326 324 324 324 322 320 320 321 321 319 317 313 310 309 309 309 308 307 305 304 304 305 305 304 303 303 303 304 304 304 304 305 305 305 305 305 305 304 304 306 309 309 307 307 311 313 314 314 314 313 310 308 307 306 306 306 306 305 305 305 304 304
332 332 331 331 331 331 331 331 331 331 329 326 325 324 322 320 318 317 318 319 318 315 312 310 310 310 310 309 307 305 304 304 305 305 304 303 303 303 304 304 304 304 305 305 305 304 304 304 304 304 304 304 306 307 306 306 309 313 314 313 313 311 308 307 306 306 306 305 305 305 304 304 304 303
331 330 330 330 330 330 330 330 329 328 326 325 324 322 319 317 316 316 316 316 315 313 311 310 310 309 308 306 305 304 305 305 305 304 303 303 303 304 304 304 304 304 304 305 305 304 304 304 304 304 304 304 305 307 309 310 312 314 313 312 312 311 308 306 306 306 305 305 305 304 304 303 303 302
329 329 329 329 329 329 328 328 327 326 324 323 322 319 316 316 316 316 315 315 314 313 311 311 309 307 305 305 305 306 305 305 304 304 303 303 303 304 303 304 304 305 304 304 305 304 304 304 304 304 304 305 308 312 314 314 314 313 313 312 312 310 307 306 305 305 305 304 304 304 303 303 302 302
329 328 329 328 328 328 327 326 325 323 322 321 319 317 316 316 315 314 314 314 313 312 311 310 308 306 305 306 306 306 305 304 304 304 303 303 303 303 304 304 304 305 305 305 304 304 304 304 305 304 304 306 310 313 314 314 313 313 313 312 311 309 307 306 304 304 304 303 303 303 303 302 302 301
328 328 328 328 327 327 326 325 323 322 320 319 318 317 316 315 314 313 313 313 312 311 310 308 307 306 306 306 306 305 305 304 304 303 303 303 303 303 304 304 304 304 304 304 304 304 304 304 304 304 305 307 310 312 313 314 313 313 312 311 309 307 306 306 304 303 303 303 302 302 302 302 301 301
328 328 328 327 327 326 324 323 321 320 319 318 317 316 316 315 314 313 313 312 311 310 309 308 306 306 306 306 306 306 305 304 303 303 303 303 303 303 304 304 304 304 304 303 303 303 304 304 304 304 304 306 309 311 312 313 313 312 311 309 307 305 305 304 304 303 302 302 302 301 301 300 300 299
328 328 328 327 325 324 322 321 320 319 318 317 317 316 315 315 314 313 313 312 311 310 308 307 306 305 305 305 305 306 305 303 303 303 303 302 303 303 304 304 304 304 304 303 303 303 304 304 304 304 305 307 310 312 312 313 312 311 310 308 306 304 303 303 303 303 302 302 302 301 300 300 299 298
Wind_Speed
18 18 16 14 12 11 12 12 12 12 13 12 10 10 11 9 5 2 2 4 6 7 9 9 8 9 9 8 7 6 5 6 8 10 12 14 14 14 15 17 18 18 19 18 18 17 16 15 15 14 14 14 15 16 16 17 17 17 17 16 17 17 17 17 17 16 16 15 15 14 14 15 15 16
19 18 17 16 14 12 12 11 11 11 12 12 12 11 11 11 8 7 4 4 7 8 9 10 9 8 7 7 7 8 7 6 7 8 10 12 13 14 15 16 18 18 18 18 18 18 18 18 17 16 16 17 17 18 18 18 17 17 17 17 17 17 18 18 18 17 17 16 16 16 16 16 17 18
21 20 18 17 16 15 14 12 12 11 11 12 12 12 12 12 11 11 7 3 7 10 10 10 9 8 7 7 8 8 8 8 9 9 10 11 12 13 15 16 16 17 17 17 18 18 18 18 18 18 18 19 19 20 20 20 19 19 18 18 18 18 18 18 18 18 18 19 19 19 19 19 19 20
23 22 20 18 17 16 15 15 13 13 12 12 13 14 15 14 13 13 11 7 8 12 12 11 10 9 10 10 9 9 9 9 10 11 12 13 13 14 16 16 16 16 17 17 17 17 17 18 18 18 19 19 19 20 20 20 20 20 19 19 20 20 20 19 19 19 19 19 20 20 20 20 20 20
25 25 24 21 19 18 17 16 15 14 14 13 14 15 16 16 15 14 14 11 11 14 14 13 12 12 11 12 11 11 12 12 12 13 14 14 15 15 16 17 17 17 17 17 17 17 17 17 17 18 19 19 18 18 18 17 18 19 19 20 20 20 20 20 20 20 20 20 21 21 21 21 21 20
26 27 26 23 21 19 19 18 17 16 16 16 15 16 16 17 18 17 16 14 12 13 16 16 15 13 13 14 14 13 14 14 15 16 16 16 17 17 17 18 19 18 18 18 17 16 16 16 17 18 18 18 17 17 16 15 16 18 19 19 19 19 19 20 20 21 22 22 22 22 22 22 22 22
27 27 27 25 23 22 21 21 20 19 19 18 17 17 17 18 19 19 18 16 14 14 16 17 17 16 15 16 15 14 15 17 18 19 19 19 19 19 19 19 19 19 20 19 18 17 17 17 17 18 18 18 16 14 14 15 17 19 20 20 20 20 20 21 21 22 22 23 23 23 23 24 23 23
29 29 28 27 25 24 23 22 21 19 19 19 19 18 18 19 20 20 19 19 17 16 16 17 19 18 17 17 17 16 18 19 20 20 21 22 22 22 21 20 20 20 20 19 18 17 17 18 18 18 19 18 15 14 15 17 19 20 21 22 22 21 21 21 21 21 21 21 21 22 23 23 23 22
31 31 30 29 26 25 24 23 21 19 19 19 19 19 19 19 20 21 21 20 19 19 19 20 20 19 19 19 19 19 19 20 20 20 21 23 23 23 22 22 21 20 18 17 16 16 17 18 18 19 19 18 16 16 18 20 21 22 23 24 24 23 21 20 19 19 20 20 20 21 21 22 22 22
33 32 32 30 26 25 25 24 22 20 19 19 19 19 20 20 21 22 22 21 20 20 21 22 22 21 21 21 21 20 18 19 20 21 23 23 22 21 22 22 20 18 16 16 16 17 18 19 19 19 19 19 19 20 21 23 24 25 25 25 25 25 24 22 22 22 23 23 22 22 22 22 23 24
34 34 33 31 28 27 26 25 23 21 20 20 20 20 21 22 22 23 23 22 21 21 21 21 22 22 22 21 20 19 18 17 18 18 20 22 22 21 21 21 20 19 18 18 19 19 20 20 20 19 18 19 20 23 25 25 25 25 25 25 25 25 24 23 22 21 21 21 21 21 20 20 21 22
33 33 34 33 32 30 27 25 24 22 21 20 20 20 21 22 23 23 24 23 21 21 21 21 22 22 21 19 19 19 18 16 17 17 16 18 21 21 20 19 20 21 20 21 21 20 19 19 19 18 19 20 23 24 23 22 21 21 20 19 18 18 17 16 16 16 16 17 18 18 18 18 18 18
29 31 33 34 33 31 28 25 22 20 19 20 20 20 20 21 22 22 23 22 22 21 19 20 21 20 19 20 20 20 18 17 18 18 16 16 19 20 20 20 20 19 19 19 19 18 17 17 19 21 23 25 25 21 18 16 17 17 16 15 15 15 15 15 15 16 17 17 16 15 15 15 15 16
30 33 35 34 33 31 27 24 22 20 19 19 19 19 19 20 21 21 22 22 21 19 18 20 19 16 18 21 19 17 18 18 17 17 15 16 17 17 17 19 19 18 17 16 16 17 17 19 23 26 27 27 22 17 15 15 16 16 15 15 16 16 17 17 17 17 17 16 15 15 16 17 18 19
32 33 35 34 32 30 27 25 23 20 19 18 18 19 20 20 20 20 20 20 20 19 17 18 16 14 16 19 18 16 16 16 15 14 14 14 16 15 13 14 17 18 16 13 15 19 21 22 24 25 24 21 17 15 16 17 17 17 16 16 17 17 17 17 17 17 17 18 19 20 21 22 24 25
31 30 32 32 32 32 29 26 24 20 18 18 19 19 19 19 19 18 18 19 19 16 14 16 16 15 15 16 17 15 14 14 14 14 15 15 15 15 13 13 16 17 17 16 16 20 21 20 20 20 17 15 15 15 16 16 17 17 18 18 17 17 17 18 19 20 21 23 24 25 26 26 26 26
32 32 31 31 32 32 29 26 23 20 19 19 18 18 18 18 17 17 17 18 17 15 14 17 17 14 13 14 16 15 13 14 15 15 15 15 14 14 14 15 17 17 18 18 17 18 19 16 15 15 14 13 13 13 15 16 17 18 19 20 21 21 22 23 24 25 25 25 25 25 24 24 23 22
33 33 31 31 32 31 28 24 22 21 21 20 18 18 17 17 16 17 18 17 16 15 15 16 15 13 13 14 15 14 11 12 12 13 14 14 14 14 14 15 17 17 17 16 13 13 15 15 14 14 13 12 13 15 16 19 20 21 23 23 23 23 23 23 23 23 23 22 21 20 20 19 19 19
32 33 32 31 31 29 26 23 22 22 22 20 18 18 17 17 17 17 17 16 14 13 13 13 13 13 14 13 11 9 9 10 11 12 13 14 14 15 15 16 17 16 14 13 9 9 13 14 14 15 15 15 17 19 20 22 22 22 22 21 20 19 19 19 19 19 19 19 18 19 19 19 19 20
35 35 31 29 28 26 24 22 21 21 21 19 19 18 16 16 17 16 14 13 11 11 10 11 12 12 10 8 7 9 11 13 13 12 12 12 11 12 13 14 15 14 13 12 9 10 12 13 14 18 18 18 19 21 21 21 19 17 16 16 16 17 17 17 18 18 18 18 19 19 20 20 21 22
37 36 30 26 25 24 22 22 21 20 20 20 18 17 16 16 15 13 12 11 10 10 10 10 10 9 8 8 10 13 13 12 11 9 9 8 8 9 9 9 11 13 13 12 7 9 11 13 15 18 19 18 19 20 20 17 15 15 17 18 18 18 18 18 19 20 21 21 21 21 22 22 22 22
35 34 29 25 24 23 21 21 20 20 20 20 19 18 17 16 14 13 12 11 10 10 10 10 10 10 10 12 12 12 10 9 8 7 7 6 6 7 7 8 10 12 14 11 6 7 11 14 15 17 18 18 19 19 17 17 17 18 19 20 19 19 20 21 22 23 24 24 24 24 23 23 22 23
32 30 26 23 21 20 19 20 20 21 20 19 17 17 16 16 16 15 12 11 10 10 9 9 10 10 10 10 8 6 6 7 7 7 6 5 6 8 10 11 10 8 8 10 7 9 13 15 15 15 13 11 14 18 18 19 21 21 20 21 21 22 23 24 24 26 27 27 25 24 23 22 22 24
29 26 23 20 18 17 18 20 21 20 18 16 15 15 17 17 17 14 11 9 9 8 8 8 8 8 7 5 3 4 5 5 6 6 5 6 9 11 12 12 11 8 8 11 11 12 14 14 16 17 13 8 10 17 21 22 22 20 20 22 23 24 25 27 27 28 29 28 25 23 23 22 23 25
28 25 21 19 18 17 18 19 19 17 15 14 15 16 17 15 13 10 9 8 8 7 7 7 7 6 3 2 2 3 4 5 6 6 7 10 12 12 12 13 12 12 12 12 13 14 15 15 18 20 16 11 12 17 23 24 22 19 19 22 24 26 28 29 30 30 29 28 25 24 24 25 25 26
27 24 21 19 18 18 18 18 17 15 13 13 14 14 12 10 9 9 8 8 7 6 6 6 4 3 1 2 3 4 5 5 6 8 10 12 12 12 12 13 12 14 14 13 14 16 17 17 18 18 17 15 15 18 20 21 21 21 20 22 25 28 29 29 30 30 29 27 26 26 27 27 28 29
25 22 19 18 18 18 18 17 16 14 13 13 13 12 10 9 10 10 9 8 7 6 5 5 3 2 2 3 5 5 7 8 8 10 12 12 12 10 11 12 13 14 15 14 15 16 16 16 16 17 17 18 17 16 16 17 21 23 23 24 27 28 29 29 29 29 28 27 28 29 30 31 32 32
22 19 17 17 18 17 17 16 15 14 13 13 12 11 11 11 11 10 10 9 8 7 7 6 4 3 4 6 7 8 9 10 11 12 13 12 11 10 11 12 12 13 14 14 14 14 14 15 16 17 18 18 16 14 14 18 22 25 25 25 27 27 27 27 27 28 28 28 29 30 31 32 34 34
19 18 18 18 18 17 16 15 14 14 13 12 11 11 12 12 12 11 10 9 10 9 9 8 7 6 6 8 9 10 12 12 12 13 13 11 9 10 11 12 11 12 13 13 13 13 13 16 18 19 19 19 17 18 19 20 23 24 24 24 25 25 26 26 27 28 29 30 31 31 31 32 34 35
16 17 19 20 19 18 16 15 14 13 12 12 12 12 13 14 12 11 11 11 11 11 10 9 9 9 9 10 12 13 13 13 13 13 12 11 10 10 11 12 12 12 12 12 12 13 14 16 19 19 19 19 19 20 21 20 21 23 25 25 25 24 24 26 28 28 29 30 31 32 32 33 34 35
16 17 19 19 19 17 16 15 14 13 13 13 13 14 15 14 12 11 12 12 12 12 12 12 12 12 12 13 14 14 13 13 12 11 10 10 10 11 12 13 13 13 13 13 13 14 15 17 19 19 19 19 19 19 19 19 20 23 25 26 25 23 24 27 28 28 29 30 31 33 33 33 35 36
18 18 19 19 18 18 17 16 15 15 14 14 14 15 16 15 13 12 12 13 13 14 14 14 14 14 14 15 15 13 12 11 10 9 9 9 10 11 12 12 13 14 15 16 15 15 14 16 18 20 20 19 18 19 19 19 20 23 25 26 25 24 25 26 26 27 29 30 31 33 33 33 36 37
21 20 20 19 19 19 19 18 17 17 16 15 16 17 17 16 15 14 14 14 15 15 15 15 15 16 16 15 13 11 10 10 9 8 8 9 10 11 11 11 13 15 16 18 19 17 16 16 17 19 19 19 19 20 19 18 21 23 24 24 24 24 24 25 25 26 28 28 30 33 34 34 36 37
22 21 21 21 21 21 21 20 19 18 18 17 18 19 18 17 16 15 15 15 16 16 16 16 16 16 14 12 10 9 11 11 9 8 8 9 9 9 10 11 13 15 17 19 20 19 19 19 20 20 20 20 22 22 20 19 21 23 23 21 21 22 23 24 25 26 28 29 29 31 32 35 36 36
23 23 23 23 23 23 22 21 20 19 19 19 19 19 18 17 16 15 15 16 16 17 17 16 15 13 12 10 10 11 12 11 8 7 8 8 8 8 10 12 13 15 17 19 19 19 20 22 23 22 22 23 23 22 21 19 18 21 22 20 19 20 22 23 25 27 30 30 29 28 29 32 36 37
24 25 25 24 24 23 22 21 20 19 19 19 19 18 17 15 14 14 15 15 15 15 16 15 13 12 11 11 12 12 11 9 8 7 7 6 7 9 11 13 14 15 17 18 18 19 20 22 23 21 17 15 12 12 17 21 20 18 18 18 18 20 22 24 26 28 30 30 29 28 28 30 36 39
25 25 26 25 25 24 23 21 19 19 19 19 18 16 15 14 14 14 15 14 13 12 13 14 14 13 11 11 12 12 11 9 8 7 6 5 7 9 12 13 14 15 16 16 17 18 20 22 23 20 13 8 5 6 14 23 24 19 15 17 20 21 22 24 26 28 30 30 29 28 29 31 37 41
26 26 25 25 25 24 22 20 19 19 19 18 16 14 13 14 14 13 13 12 11 11 13 14 14 12 11 12 13 13 12 10 8 5 4 5 8 10 11 12 13 15 16 16 17 18 20 21 23 21 14 7 4 5 10 18 23 23 20 18 19 21 23 23 24 27 29 30 30 29 29 32 36 40
27 27 27 26 25 23 21 20 19 18 18 16 15 14 13 13 12 11 10 10 11 13 14 15 14 12 13 14 15 14 11 9 6 4 4 6 8 9 10 12 13 14 15 17 18 19 21 22 24 24 20 15 13 14 16 18 21 23 23 19 18 21 24 23 24 26 29 31 31 31 31 33 35 36
27 27 27 26 24 21 20 19 17 17 16 14 14 14 13 12 11 10 10 11 12 14 15 15 14 14 14 14 13 11 9 7 5 4 4 6 7 9 10 11 13 14 15 17 19 21 22 24 24 25 25 22 20 20 19 18 18 21 25 23 21 22 23 23 23 25 28 30 32 31 31 31 32 33
28 26 25 23 21 19 18 17 17 16 15 14 15 15 14 13 12 11 11 12 14 15 16 16 15 15 14 12 10 9 7 6 5 4 5 6 7 8 9 10 12 13 14 16 18 21 22 24 24 24 24 22 18 14 11 10 12 19 26 27 26 25 23 22 23 24 26 29 31 30 28 29 31 32
29 27 24 21 19 19 18 18 17 16 15 16 17 16 15 14 12 12 13 14 16 17 18 16 16 15 14 12 10 9 8 7 6 4 4 5 6 7 8 10 12 13 14 15 18 21 22 23 24 23 22 19 14 10 8 9 12 18 24 28 29 28 25 23 24 24 25 27 27 25 27 28 26 24
28 26 23 20 19 20 20 19 18 17 17 18 18 17 15 14 14 14 16 17 19 20 19 17 17 17 15 13 12 11 10 8 7 5 4 5 6 7 8 10 11 12 14 16 18 21 22 23 23 23 21 17 12 10 10 13 16 19 22 25 29 29 28 27 27 28 27 27 24 22 24 26 23 21
27 24 22 20 20 21 20 18 18 18 18 18 17 16 15 15 14 15 17 19 21 21 19 17 17 17 15 14 13 13 12 9 7 6 5 6 6 7 8 10 11 12 14 16 19 21 22 22 21 21 20 17 13 11 12 14 16 18 20 23 26 28 28 29 30 31 32 31 27 25 26 28 27 28
25 24 22 21 21 21 19 19 19 19 18 17 17 16 15 14 15 16 18 20 22 21 18 17 17 16 15 15 15 14 12 10 7 6 6 6 6 6 7 9 11 13 14 16 18 21 22 21 20 19 19 16 12 10 11 13 14 17 20 22 23 25 27 27 28 29 31 32 30 29 29 30 30 31
Wind_Direction
220 225 229 228 229 232 232 231 230 234 239 238 237 232 218 205 191 193 280 269 249 247 240 231 230 238 250 266 281 291 290 277 271 273 276 281 284 285 287 290 291 291 290 288 284 280 279 280 282 285 287 290 293 294 296 298 297 296 294 296 297 298 298 297 295 294 292 291 293 295 298 301 302 303
221 226 231 232 231 229 228 228 230 235 238 237 236 234 227 223 215 202 210 257 255 244 241 243 245 249 257 271 281 285 288 286 279 277 276 277 281 284 286 288 290 292 293 292 289 285 282 282 283 285 286 286 288 289 290 292 294 295 295 295 296 296 295 293 291 290 290 291 293 296 298 300 300 301
223 226 231 232 228 225 227 229 230 232 233 237 238 233 228 230 234 225 207 223 262 256 254 256 256 262 277 284 286 289 291 290 285 282 282 283 285 287 288 290 293 296 296 294 292 290 288 288 289 290 290 289 287 287 286 286 286 288 292 295 297 297 295 292 289 288 287 289 292 295 298 299 299 300
224 225 228 228 224 225 229 230 231 233 233 237 237 234 233 232 235 233 216 211 254 264 264 265 264 272 285 287 286 291 296 297 295 293 293 292 292 292 293 296 299 303 303 298 292 289 290 290 291 292 293 292 290 288 287 286 284 286 289 294 297 298 297 295 293 291 290 290 291 293 296 297 298 298
224 224 226 226 225 228 233 234 235 236 235 237 235 232 235 235 233 231 223 222 247 266 268 267 270 277 284 285 286 293 296 299 302 301 298 295 294 296 299 301 303 306 308 305 298 293 291 292 295 297 296 293 291 291 291 291 292 293 295 298 300 300 299 298 297 296 295 294 293 292 293 294 295 296
220 221 224 226 226 230 235 237 239 239 236 235 235 233 237 240 238 234 233 231 239 259 269 272 276 278 281 284 289 296 300 303 306 304 302 301 300 301 304 305 305 305 306 306 304 300 297 298 302 304 303 299 293 292 294 298 302 305 306 306 305 302 299 298 298 297 297 295 294 292 291 291 291 293
220 222 224 226 227 230 235 239 240 239 235 235 236 238 243 245 243 241 242 242 240 251 265 275 278 277 280 286 291 298 301 304 307 307 308 310 309 308 308 307 304 303 304 304 304 302 301 302 305 306 307 306 301 297 300 303 305 306 307 306 304 301 297 295 293 292 292 292 292 291 290 290 289 290
224 225 227 229 229 231 235 240 241 237 233 233 236 242 248 248 245 245 247 250 250 251 259 270 275 276 280 286 292 297 298 301 306 309 311 314 314 315 315 313 309 306 305 303 300 299 300 301 302 303 303 303 302 301 302 302 303 304 304 303 300 297 292 290 288 288 288 289 289 289 288 289 289 290
227 228 230 231 231 232 235 239 242 241 237 236 238 244 250 250 247 248 251 254 254 252 256 263 269 273 275 282 290 295 297 302 306 307 309 313 316 318 318 316 313 310 306 303 299 300 301 300 299 299 299 298 298 298 299 301 302 302 301 299 297 295 291 289 288 288 290 291 290 288 287 287 289 290
231 231 232 233 232 232 235 239 243 245 244 242 242 244 247 250 251 251 253 254 253 254 257 261 266 269 272 279 287 292 296 302 304 307 311 314 317 319 318 315 312 310 308 305 306 307 307 304 300 297 296 295 296 299 302 303 301 298 295 292 291 291 290 289 289 289 290 290 291 291 289 287 286 285
234 235 236 236 235 234 236 240 244 247 246 244 244 245 245 247 251 253 254 254 254 256 258 260 264 268 273 279 284 288 294 299 303 309 313 313 316 319 317 313 310 309 309 308 309 309 307 305 302 300 297 297 301 304 305 302 299 296 293 291 289 289 290 292 292 292 290 290 291 291 290 287 285 282
237 240 241 239 239 239 241 245 248 250 248 244 245 248 247 247 250 253 254 253 253 254 254 257 262 268 275 281 286 292 298 304 309 315 313 306 310 315 313 308 307 307 308 308 307 307 307 306 306 304 302 304 307 307 305 302 299 299 300 300 299 297 296 296 295 295 296 296 297 295 293 291 290 288
240 245 246 244 241 242 245 249 251 251 250 248 250 253 252 250 251 253 254 253 251 249 250 254 261 269 278 285 291 298 305 311 313 314 309 300 304 310 308 305 306 306 306 307 307 308 310 310 309 308 307 308 310 310 308 306 305 307 310 308 305 302 298 296 296 298 300 301 301 299 299 299 298 297
238 243 247 248 246 246 248 249 249 249 251 253 255 257 257 255 255 253 251 249 247 246 248 255 262 271 279 286 292 298 305 308 307 307 305 302 304 306 302 302 305 306 307 307 307 309 311 308 305 306 306 306 309 312 311 308 309 311 309 304 301 300 298 298 298 298 298 298 300 301 302 303 302 301
236 242 247 250 250 250 248 247 247 249 252 254 254 255 257 259 260 255 249 247 246 244 250 261 268 270 275 285 293 296 299 303 303 305 306 303 301 298 293 294 301 309 312 307 301 304 307 306 304 305 305 306 310 313 309 307 308 309 307 304 303 302 302 302 300 298 296 296 298 299 299 299 299 298
236 243 248 249 251 251 249 248 250 250 250 250 251 255 257 258 258 256 254 254 252 250 260 270 271 267 272 286 293 294 297 301 303 306 305 301 298 294 287 284 291 307 313 305 297 300 307 311 310 310 313 314 314 312 309 309 309 308 307 306 305 307 307 306 303 300 299 298 297 296 295 294 293 291
236 242 245 246 250 251 250 249 248 248 247 249 254 259 259 255 251 251 254 255 256 263 270 268 268 271 276 284 289 293 297 300 301 303 302 302 299 293 286 284 291 306 310 304 300 301 309 318 315 313 318 318 313 310 309 309 307 304 303 303 303 305 305 304 302 301 299 298 295 293 291 290 288 287
238 242 243 243 248 251 249 246 244 244 247 252 258 260 254 249 246 246 248 251 258 267 266 261 266 278 282 283 288 293 296 297 299 298 297 299 298 291 288 290 298 307 311 310 305 299 311 322 313 309 319 317 309 308 306 304 303 300 298 297 299 302 303 303 302 301 299 298 296 294 291 289 290 292
240 244 245 244 247 249 248 246 245 245 249 253 255 251 246 244 243 244 246 251 258 259 255 259 272 282 285 287 290 294 300 302 301 296 293 294 293 291 293 298 304 311 317 320 307 287 309 324 311 306 315 312 305 307 305 304 303 300 298 299 303 306 307 306 304 303 304 303 301 299 297 295 295 297
240 244 246 246 248 248 248 250 248 248 250 248 243 241 242 244 242 242 248 256 261 261 263 274 283 284 284 284 288 298 304 304 300 293 290 293 295 298 303 307 313 320 325 326 305 275 295 317 309 304 311 310 306 307 308 308 308 305 306 311 314 314 313 312 313 314 314 312 309 306 304 302 300 298
234 237 242 246 250 251 252 253 250 246 243 238 237 244 246 243 238 240 250 259 263 269 277 282 282 278 275 279 290 299 300 296 290 287 294 305 311 310 307 303 310 318 322 324 304 263 279 304 305 303 309 311 308 310 314 316 317 317 319 319 318 317 317 318 321 322 321 319 316 313 311 308 305 302
229 231 237 244 250 252 252 252 246 240 237 234 238 246 244 236 235 241 251 258 263 270 276 278 275 273 279 288 295 297 292 280 276 289 306 314 313 312 302 286 293 307 313 317 296 252 277 301 305 303 308 309 307 311 318 322 323 323 322 320 319 319 320 320 321 322 322 321 319 316 315 311 308 307
228 230 236 243 248 249 248 247 241 236 235 235 239 243 239 237 243 249 252 256 260 265 269 271 276 282 291 297 296 289 282 280 288 303 311 306 309 313 304 294 293 294 303 311 296 269 285 302 306 304 303 302 307 313 316 319 322 323 323 321 321 321 322 321 319 319 320 320 319 317 315 313 313 312
227 230 237 242 243 241 240 240 237 234 234 237 242 245 242 243 250 253 250 248 252 258 266 277 291 304 308 298 277 278 293 303 309 311 307 313 321 319 309 302 295 280 290 312 307 289 290 300 304 304 300 283 293 307 311 314 320 324 325 322 321 324 325 323 320 319 320 320 319 318 317 317 317 314
223 227 235 240 236 232 232 233 233 231 232 237 243 245 243 243 249 250 243 241 246 256 273 290 306 319 310 249 244 297 315 316 310 303 305 318 323 320 315 311 299 289 302 322 318 301 295 299 302 305 302 286 280 295 304 310 319 327 326 322 322 325 326 323 321 321 320 320 320 319 318 318 317 313
223 229 236 235 227 222 224 226 225 227 231 233 236 240 240 238 239 238 234 236 244 255 272 288 302 312 261 223 253 297 311 311 307 305 310 318 318 315 316 318 311 305 314 326 323 310 301 302 305 304 299 293 290 292 296 304 317 326 325 322 323 324 323 322 320 320 321 320 320 320 319 318 317 313
224 229 229 223 217 215 216 217 220 225 229 231 234 238 238 233 230 228 227 229 236 248 258 262 262 239 219 246 267 282 294 302 305 308 313 316 314 310 314 319 318 318 321 327 329 322 311 308 314 312 301 295 293 292 292 298 309 317 319 322 325 325 323 322 318 318 320 320 319 320 320 318 317 315
225 225 218 212 210 209 210 214 221 226 226 230 234 232 228 225 221 221 224 227 232 238 240 239 242 233 235 254 267 277 288 295 301 307 311 312 311 311 313 317 320 324 328 332 336 336 327 320 325 325 314 301 290 285 289 295 301 309 314 317 323 327 327 324 320 319 320 319 319 320 318 316 316 314
227 223 215 210 208 209 212 216 219 220 220 223 223 219 214 214 216 222 227 227 229 234 235 237 243 245 247 260 272 281 288 291 296 303 305 305 308 310 313 318 322 327 333 337 340 342 334 326 327 327 321 311 298 289 290 293 298 307 311 310 314 322 327 327 323 321 320 319 318 317 314 312 312 311
222 219 216 214 212 212 215 215 214 213 213 213 210 206 206 209 218 228 230 227 229 235 238 242 249 256 263 272 279 283 285 287 291 297 300 304 313 318 322 327 331 333 338 341 341 336 327 326 330 330 326 323 315 306 302 296 295 305 313 311 309 315 323 326 325 322 320 318 316 313 311 309 308 306
212 211 212 212 212 211 209 209 209 207 207 209 208 205 207 214 225 232 233 234 237 240 244 250 258 266 272 278 282 282 279 281 286 292 297 306 316 326 331 335 337 341 343 341 338 333 328 331 337 337 333 329 325 323 321 310 298 302 311 313 310 308 314 320 321 320 320 317 313 310 308 307 306 304
201 201 201 202 204 205 203 202 202 202 205 209 209 210 215 222 229 233 236 240 241 242 247 254 261 268 275 279 281 278 271 273 282 288 295 305 317 329 337 338 340 343 343 342 341 338 335 336 338 339 339 334 329 330 329 317 308 306 307 310 310 307 310 316 317 318 320 316 309 307 306 305 305 304
191 191 194 197 198 199 199 197 197 200 204 207 210 215 221 226 231 236 241 245 248 249 251 255 261 268 272 274 273 267 264 270 278 282 291 307 321 334 341 342 341 341 339 340 344 344 341 338 336 336 338 337 335 333 325 311 309 310 307 305 306 306 310 317 318 317 317 313 307 306 306 305 305 305
188 188 192 196 198 198 197 196 196 200 203 208 213 218 223 228 236 242 248 253 257 257 255 256 261 262 262 262 263 261 263 268 271 277 296 315 330 342 346 343 342 342 338 338 344 346 344 341 338 336 336 335 334 333 325 310 305 308 310 307 303 304 312 319 321 318 315 312 308 305 304 304 306 306
188 189 190 194 196 197 197 197 199 202 206 212 217 221 226 233 240 248 254 259 262 262 259 257 254 249 246 251 256 257 257 262 269 284 305 323 335 345 346 340 337 339 339 339 343 346 344 342 341 339 337 336 334 332 331 324 312 309 313 312 309 311 316 321 321 318 315 315 313 308 303 303 306 307
188 191 193 194 196 197 198 200 203 206 210 215 219 224 230 238 245 253 261 266 266 262 256 247 236 231 235 244 250 251 253 263 282 299 313 326 336 340 340 336 336 339 340 341 343 344 342 341 341 339 336 336 335 325 325 330 328 319 314 315 317 321 323 323 322 319 318 318 316 310 305 303 304 307
190 193 196 198 199 201 203 204 205 208 213 218 222 227 235 243 251 259 265 264 255 241 230 223 220 224 234 246 254 256 259 269 286 300 312 327 338 339 337 336 339 341 342 342 343 343 340 339 339 337 332 329 328 302 310 323 331 333 327 320 320 324 326 324 321 320 320 319 315 309 306 302 302 306
196 196 199 201 203 205 207 207 208 211 215 219 223 231 240 246 250 254 255 248 230 212 206 210 217 229 244 254 258 258 259 265 275 287 308 328 337 340 338 338 341 342 341 341 341 340 338 337 336 334 330 317 298 291 301 312 321 330 336 330 322 323 328 327 321 318 318 317 314 311 307 302 300 305
202 203 204 205 206 209 210 210 210 213 216 220 225 230 231 231 230 232 232 224 208 201 206 213 224 238 250 254 254 253 253 255 260 274 309 330 337 342 342 341 342 342 340 340 339 337 336 337 335 333 328 313 299 297 296 294 302 320 334 335 326 325 330 329 322 318 316 316 316 314 311 307 306 308
207 208 209 210 210 211 211 209 211 213 214 216 218 216 213 213 213 217 219 213 206 208 216 223 232 242 246 245 244 242 241 242 247 274 313 330 338 345 347 345 344 341 338 338 338 335 334 336 336 333 327 320 313 309 304 296 301 319 330 333 330 330 331 331 327 321 318 319 320 317 314 314 314 315
206 209 211 211 211 209 205 202 203 205 206 208 206 203 203 208 212 215 216 215 216 220 223 228 234 237 234 231 229 228 232 240 251 278 313 331 338 344 347 346 344 342 338 333 331 332 333 335 336 336 333 329 326 322 316 309 312 320 325 329 331 333 334 337 336 329 323 324 323 318 317 319 318 317
205 207 206 205 204 200 195 193 196 199 202 201 199 198 201 204 205 206 209 214 220 224 226 229 232 229 223 222 225 230 236 244 254 274 304 322 331 337 343 344 343 342 337 330 329 331 333 335 338 341 340 338 337 333 320 311 311 315 321 326 330 332 336 340 342 341 336 331 327 322 321 323 322 319
203 203 200 197 195 192 190 191 195 198 197 195 196 199 200 197 195 200 207 214 219 221 225 228 227 225 224 227 231 233 235 241 251 267 288 307 321 331 336 340 342 342 337 333 333 334 336 337 342 344 344 343 341 330 316 313 314 316 321 325 328 333 338 342 344 346 345 342 338 333 328 326 322 320
201 200 196 192 189 188 190 193 195 194 193 194 197 199 197 196 200 205 210 216 219 221 225 228 228 228 230 232 232 231 231 235 246 261 280 299 314 323 330 336 340 339 337 336 336 336 337 340 344 346 345 343 337 325 319 319 318 319 323 327 330 334 339 342 343 344 345 346 346 342 336 332 327 322
200 198 194 190 188 189 192 194 192 191 192 196 198 198 199 205 211 213 215 219 220 222 226 229 228 229 231 230 229 227 226 229 240 259 281 296 304 314 325 333 336 336 335 337 337 336 337 342 346 347 344 340 335 330 325 321 319 322 327 329 331 336 339 340 340 338 336 339 344 344 341 338 335 332